Weather History for KCEZ - February, 2012

Change the Weather History Date:

Monday, February 13, 2012

  Actual Average Record
Temperature  
Mean Temperature 36 °F 32 °F  
Max Temperature 41 °F 45 °F 61 °F (2015)
Min Temperature 30 °F 18 °F 0 °F (2004)
Degree Days  
Heating Degree Days 29 34  
Month to date heating degree days 403 450  
Since 1 July heating degree days 4012 4255  
Cooling Degree Days 0 0  
Month to date cooling degree days 0  
Year to date cooling degree days 0  
Moisture  
Dew Point 30 °F    
Average Humidity 80    
Maximum Humidity 96    
Minimum Humidity 64    
Precipitation  
Precipitation 0.07 in 0.03 in 0.49 in (2003)
Month to date precipitation 0.30 0.37  
Year to date precipitation 1.04 1.38  
Sea Level Pressure  
Sea Level Pressure 29.83 in    
Wind  
Wind Speed 3 mph (West)    
Max Wind Speed 12 mph    
Max Gust Speed 15 mph    
Visibility 6 miles    
Events Snow    
T = Trace of Precipitation, MM = Missing Value Source: NWS Daily Summary

Daily Weather History Graph

Daily Weather History Graph

Search for Another Location

Airport or City:

Trip Planner

Search our weather history database for the weather conditions in past years. The results will help you decide how hot, cold, wet, or windy it might be!

Date:

Astronomy

Feb. 13, 2012 Rise Set
Actual Time 7:06 AM MST 5:51 PM MST
Civil Twilight 6:39 AM MST 6:18 PM MST
Nautical Twilight 6:08 AM MST 6:49 PM MST
Astronomical Twilight 5:38 AM MST 7:19 PM MST
Moon No Moon Rise 10:17 AM MST (2/13)
Length of Visible Light 11h 38m
Length of Day
10h 45m
Waning Gibbous, 61% of the Moon is Illuminated
Feb 13
Waning Gibbous
Feb 14
Last Quarter
Feb 21
New
Feb 29
First Quarter
Mar 8
Full

Hourly Weather History & Observations

Time (MST) Temp. Windchill Dew Point Humidity Pressure Visibility Wind Dir Wind Speed Gust Speed Precip Events Conditions
12:04 AM 32.0 °F 24.2 °F 30.2 °F 93% 29.82 in 1.8 mi SSW 9.2 mph - 0.00 in Snow Light Snow
12:12 AM 32.0 °F 24.8 °F 30.2 °F 93% 29.81 in 1.0 mi South 8.1 mph - 0.01 in Snow Light Snow
12:19 AM 32.0 °F 27.5 °F 32.0 °F 100% 29.81 in 2.0 mi South 4.6 mph - 0.01 in Snow Light Snow
12:24 AM 32.0 °F - 32.0 °F 100% 29.81 in 3.0 mi Calm Calm - 0.01 in Snow Light Snow
12:33 AM 32.0 °F - 30.2 °F 93% 29.81 in 9.0 mi Calm Calm - 0.01 in Snow Light Snow
12:53 AM 32.0 °F - 30.9 °F 96% 29.79 in 5.0 mi Calm Calm - 0.01 in Snow Light Snow
1:53 AM 33.1 °F - 30.9 °F 92% 29.79 in 5.0 mi Calm Calm - 0.00 in Snow Light Snow
2:20 AM 32.0 °F - 30.2 °F 93% 29.82 in 3.0 mi Calm Calm - 0.00 in Snow Light Snow
2:32 AM 32.0 °F - 30.2 °F 93% 29.82 in 2.5 mi Calm Calm - 0.01 in Snow Light Snow
2:45 AM 32.0 °F - 30.2 °F 93% 29.82 in 3.0 mi Calm Calm - 0.02 in Snow Light Snow
2:53 AM 32.0 °F - 30.9 °F 96% 29.79 in 4.0 mi Calm Calm - 0.02 in Snow Light Snow
3:12 AM 32.0 °F 28.7 °F 30.2 °F 93% 29.82 in 6.0 mi NNW 3.5 mph - 0.00 in   Overcast
3:26 AM 32.0 °F - 30.2 °F 93% 29.82 in 6.0 mi Calm Calm - 0.00 in   Overcast
3:53 AM 32.0 °F - 30.9 °F 96% 29.79 in 5.0 mi Calm Calm - 0.00 in Snow Light Snow
4:28 AM 33.8 °F - 30.2 °F 87% 29.83 in 2.5 mi Calm Calm - 0.00 in Snow Light Snow
4:33 AM 33.8 °F - 30.2 °F 87% 29.83 in 1.8 mi Calm Calm - 0.00 in Snow Light Snow
4:38 AM 33.8 °F - 30.2 °F 87% 29.83 in 2.0 mi Calm Calm - 0.00 in Snow Light Snow
4:42 AM 33.8 °F 28.6 °F 30.2 °F 87% 29.83 in 3.0 mi SW 5.8 mph - 0.00 in Snow Light Snow
4:53 AM 33.1 °F 28.7 °F 30.9 °F 92% 29.80 in 9.0 mi SW 4.6 mph - 0.00 in Snow Light Snow
5:42 AM 32.0 °F 27.5 °F 30.2 °F 93% 29.83 in 7.0 mi WSW 4.6 mph - 0.00 in Snow Light Snow
5:53 AM 32.0 °F - 30.9 °F 96% 29.81 in 9.0 mi Calm Calm - 0.00 in Snow Light Snow
6:03 AM 32.0 °F - 30.2 °F 93% 29.84 in 10.0 mi Calm Calm - N/A   Overcast
6:16 AM 30.2 °F - 30.2 °F 100% 29.84 in 10.0 mi Calm Calm - N/A   Overcast
6:33 AM 30.2 °F - 30.2 °F 100% 29.84 in 10.0 mi Calm Calm - N/A   Overcast
6:53 AM 30.9 °F 27.5 °F 30.0 °F 96% 29.83 in 10.0 mi WSW 3.5 mph - N/A   Overcast
7:03 AM 32.0 °F 28.7 °F 30.2 °F 93% 29.85 in 10.0 mi West 3.5 mph - N/A   Overcast
7:53 AM 30.0 °F - 28.0 °F 92% 29.86 in 10.0 mi Calm Calm - N/A   Scattered Clouds
8:53 AM 34.0 °F - 32.0 °F 92% 29.87 in 9.0 mi Calm Calm - N/A   Partly Cloudy
9:21 AM 35.6 °F - 32.0 °F 87% 29.89 in 10.0 mi Calm Calm - N/A   Mostly Cloudy
9:53 AM 36.0 °F - 32.0 °F 86% 29.87 in 10.0 mi Calm Calm - N/A   Mostly Cloudy
10:26 AM 35.6 °F 31.7 °F 30.2 °F 81% 29.89 in 10.0 mi SW 4.6 mph - N/A   Mostly Cloudy
10:53 AM 37.0 °F - 28.9 °F 73% 29.87 in 10.0 mi Calm Calm - N/A   Partly Cloudy
11:53 AM 39.0 °F 33.4 °F 28.0 °F 65% 29.85 in 10.0 mi WNW 8.1 mph - N/A   Mostly Cloudy
12:53 PM 39.9 °F 33.9 °F 28.0 °F 63% 29.83 in 10.0 mi WNW 9.2 mph - N/A   Overcast
1:53 PM 39.9 °F 35.1 °F 28.0 °F 63% 29.80 in 10.0 mi NW 6.9 mph - N/A   Overcast
2:03 PM 39.2 °F 35.9 °F 28.4 °F 65% 29.84 in 2.0 mi West 4.6 mph - 0.01 in   Haze
2:10 PM 37.4 °F 34.9 °F 28.4 °F 70% 29.84 in 1.8 mi WNW 3.5 mph - 0.03 in Snow Light Snow
2:12 PM 37.4 °F - 28.4 °F 70% 29.84 in 2.5 mi Calm Calm - 0.03 in Snow Light Snow
2:19 PM 39.2 °F 37.0 °F 30.2 °F 70% 29.84 in 7.0 mi NW 3.5 mph - 0.03 in   Unknown
2:35 PM 39.2 °F 35.9 °F 30.2 °F 70% 29.83 in 9.0 mi ENE 4.6 mph - 0.03 in   Mostly Cloudy
2:53 PM 39.0 °F 33.4 °F 32.0 °F 76% 29.79 in 10.0 mi ENE 8.1 mph - 0.03 in   Overcast
3:53 PM 37.9 °F 33.5 °F 30.9 °F 76% 29.80 in 9.0 mi East 5.8 mph - 0.00 in   Overcast
4:53 PM 36.0 °F - 30.9 °F 82% 29.81 in 4.0 mi Calm Calm - 0.00 in Snow Light Snow
5:02 PM 35.6 °F - 30.2 °F 81% 29.83 in 2.0 mi Calm Calm - 0.00 in Snow Light Snow
5:07 PM 35.6 °F - 30.2 °F 81% 29.83 in 1.2 mi Calm Calm - 0.01 in Snow Light Snow
5:14 PM 35.6 °F - 32.0 °F 87% 29.83 in 2.0 mi Calm Calm - 0.01 in Snow Light Snow
5:18 PM 35.6 °F - 32.0 °F 87% 29.83 in 3.0 mi Calm Calm - 0.01 in Snow Light Snow
5:53 PM 34.0 °F 29.8 °F 32.0 °F 92% 29.82 in 10.0 mi ENE 4.6 mph - 0.01 in   Overcast
6:53 PM 34.0 °F 29.8 °F 32.0 °F 92% 29.83 in 10.0 mi East 4.6 mph - N/A   Overcast
7:53 PM 34.0 °F - 32.0 °F 92% 29.83 in 10.0 mi Calm Calm - N/A   Overcast
8:53 PM 34.0 °F - 32.0 °F 92% 29.83 in 10.0 mi Calm Calm - N/A   Overcast
9:53 PM 33.1 °F - 30.9 °F 92% 29.82 in 10.0 mi Calm Calm - N/A   Scattered Clouds
10:53 PM 32.0 °F - 30.0 °F 92% 29.81 in 10.0 mi Calm Calm - N/A   Partly Cloudy
11:53 PM 30.9 °F 27.5 °F 28.0 °F 89% 29.80 in 10.0 mi NNW 3.5 mph - N/A   Partly Cloudy